TELSTAR 12V

Last updated on Thu Nov 21 2024 00:02:43 GMT+0000 (Coordinated Universal Time)

1 41036U 15068A 24325.29285639 -.00000117 00000+0 00000+0 0 9992 2 41036 0.0168 317.0532 0002615 287.6524 265.5335 1.00272094 32874
UTC large
Height (km)
Speed (km/s)
/
Latitude / Longitude
Inclination (degrees)
Orbital Period (minutes)
Azimuth
Elevation
Range (km)
Doppler Factor

Next 0 passes for location: London (51.5072 / 0.1276)

Sorry there are no passes over London.